Location: Unspecified
(0.0000°N, 0.0000°E)
Time: 09:39:23
(UTC+00:00)

Vanguard 2 - Pass Details

Date: 22 October 2021
Orbit: 554 x 2936 km, 32.9° (Epoch: 06 December)

Event Time Altitude Azimuth Distance (km) Brightness Sun altitude
Rises 00:38:56 0° 257° (WSW) 6,706 - -72.5°
Reaches altitude 10° 00:44:26 10° 266° (W) 5,508 - -71.5°
Maximum altitude 00:57:39 32° 322° (NW) 3,240 - -68.7°
Drops below altitude 10° 01:07:00 10° 22° (NNE) 3,843 - -66.7°
Sets 01:10:06 0° 33° (NNE) 4,502 - -66.0°
